Lahr, Germany

6:32 PM CET on November 15, 2019 (GMT +0100)
Lahr

Weather History for EDTL - September, 2019

Change the Weather History Date:

Wednesday, September 4, 2019

  Actual Average (LFST) Record (LFST)
Temperature  
Mean Temperature 64 °F -  
Max Temperature 80 °F 72 °F 84 °F (2004)
Min Temperature 47 °F 52 °F 42 °F (2003)
Degree Days  
Heating Degree Days 2    
Growing Degree Days 14 (Base 50)    
Moisture  
Dew Point 49 °F    
Average Humidity 49    
Maximum Humidity 89    
Minimum Humidity 30    
Precipitation  
Precipitation 0.00 in - - ()
Sea Level Pressure  
Sea Level Pressure 30.04 in    
Wind  
Wind Speed 3 mph ()    
Max Wind Speed 9 mph    
Max Gust Speed -    
Visibility 17.5 miles    
Events      
Averages and records for this station are not official NWS values.
T = Trace of Precipitation, MM = Missing Value Source: Averaged Metar Reports

Daily Weather History Graph

Daily Weather History Graph

Search for Another Location

Airport or City:

Astronomy

Sep. 04, 2019 Rise Set
Actual Time 6:49 AM CEST 8:05 PM CEST
Civil Twilight 6:17 AM CEST 8:37 PM CEST
Nautical Twilight 5:38 AM CEST 9:15 PM CEST
Astronomical Twilight 4:56 AM CEST 9:57 PM CEST
Moon 12:59 PM CEST (9/4) 11:00 PM CEST (9/4)
Length of Visible Light 14h 19m
Length of Day
13h 15m
Waxing Crescent, 32% of the Moon is Illuminated
Sep 4
Waxing Crescent
Sep 6
First Quarter
Sep 14
Full
Sep 22
Last Quarter
Sep 28
New

Hourly Weather History & Observations

Time (CEST) Temp. Dew Point Humidity Pressure Visibility Wind Dir Wind Speed Gust Speed Precip Events Conditions
4:00 AM 50 °F 47 °F 85% 30.17 in 18 mi East 2.2 mph - -  
7:00 AM 47 °F 45 °F 89% 30.15 in 15 mi WSW 2.2 mph - -  
7:20 AM 53.6 °F 44.6 °F 72% 30.12 in - Calm Calm - N/A   Clear
7:50 AM 53.6 °F 46.4 °F 77% 30.12 in - Variable 1.2 mph - N/A   Clear
8:20 AM 55.4 °F 48.2 °F 77% 30.12 in - NNW 2.3 mph - N/A   Clear
8:50 AM 57.2 °F 48.2 °F 72% 30.12 in - Variable 1.2 mph - N/A   Clear
9:00 AM 59 °F 46 °F 52% 30.13 in 19 mi West 2.2 mph - -  
9:20 AM 60.8 °F 48.2 °F 63% 30.12 in - Variable 1.2 mph - N/A   Clear
9:50 AM 62.6 °F 50.0 °F 63% 30.12 in - Variable 2.3 mph - N/A   Clear
10:20 AM 64.4 °F 50.0 °F 59% 30.09 in - Variable 2.3 mph - N/A   Clear
10:50 AM - - N/A% 0.00 in - SW 4.6 mph - N/A   Clear
11:20 AM 68.0 °F 50.0 °F 52% 30.09 in - SW 4.6 mph - N/A   Clear
11:50 AM 71.6 °F 53.6 °F 53% 30.09 in - Variable 2.3 mph - N/A   Clear
12:00 PM 71 °F 49 °F 35% 30.07 in 18 mi SSW 4.5 mph - -  
12:20 PM 71.6 °F 50.0 °F 46% 30.06 in - Variable 3.5 mph - N/A   Clear
12:50 PM 73.4 °F 48.2 °F 41% 30.06 in - SSW 4.6 mph - N/A   Clear
1:20 PM 75.2 °F 48.2 °F 38% 30.04 in - SSW 5.8 mph - N/A   Clear
1:50 PM 77.0 °F 48.2 °F 36% 30.04 in - South 4.6 mph - N/A   Clear
2:20 PM 77.0 °F 48.2 °F 36% 30.01 in - SW 4.6 mph - N/A   Clear
2:50 PM 78.8 °F 46.4 °F 32% 30.01 in - SSW 8.1 mph - N/A   Clear
3:20 PM 78.8 °F 48.2 °F 34% 30.01 in - SSW 9.2 mph - N/A   Clear
3:50 PM 78.8 °F 48.2 °F 34% 29.98 in - WSW 6.9 mph - N/A   Clear
4:20 PM 80.6 °F 50.0 °F 34% 29.98 in - Variable 4.6 mph - N/A   Clear
4:50 PM 80.6 °F 48.2 °F 32% 29.98 in - South 8.1 mph - N/A   Clear
5:20 PM 80.6 °F 48.2 °F 32% 29.95 in - SW 8.1 mph - N/A   Clear
5:50 PM 80.6 °F 46.4 °F 30% 29.95 in - SSW 5.8 mph - N/A   Clear
6:20 PM 80.6 °F 50.0 °F 34% 29.95 in - SSW 6.9 mph - N/A   Clear
6:50 PM 78.8 °F 51.8 °F 39% 29.95 in - SW 6.9 mph - N/A   Clear
7:20 PM 77.0 °F 50.0 °F 39% 29.95 in - SSW 8.1 mph - N/A   Clear
7:50 PM 75.2 °F 50.0 °F 41% 29.95 in - South 5.8 mph - N/A   Clear
9:00 PM 69 °F 50 °F 41% 29.96 in 28 mi SW 2.2 mph - -